Wind_Speed
13 10 14 15 14 16 13 13 15 13 6 8 16 16 14 10 12 11 11 9 9 12 14 16 18 19 18 17 17 17 18 17 16 16 17 13 11 10 10 14 21 29 31 34
10 15 17 13 8 9 12 16 16 13 5 8 16 18 15 13 10 9 4 6 9 11 12 16 21 12 11 10 10 14 16 16 17 16 13 8 6 6 7 15 21 32 34 32
18 8 3 12 12 13 15 15 15 15 11 13 17 22 15 7 6 5 6 3 5 8 9 11 14 15 13 11 6 10 12 14 16 18 14 9 9 4 9 14 17 29 32 29
15 20 12 10 14 11 14 13 11 12 8 8 2 7 6 12 10 9 4 1 4 5 7 9 11 12 11 12 1 2 7 14 15 20 13 10 8 9 11 16 22 22 25 25
9 11 13 16 18 15 14 0 5 8 10 14 16 7 9 10 10 11 4 2 4 4 6 9 9 10 10 8 10 7 7 11 13 17 11 11 10 10 16 22 22 26 23 25
20 0 10 13 5 9 5 5 6 8 8 9 18 12 6 10 10 8 5 6 5 3 5 8 8 9 11 10 9 11 10 8 6 9 10 12 11 10 14 11 26 26 22 22
19 20 9 8 8 5 10 7 3 5 5 4 4 5 13 8 6 6 8 8 6 4 3 6 8 9 13 14 14 12 12 12 11 8 9 10 10 7 15 13 19 25 22 24
18 11 24 18 20 9 17 15 5 5 4 2 2 7 2 6 9 9 7 7 7 4 4 4 6 11 13 13 14 14 16 16 14 8 10 10 11 8 19 19 16 15 20 24
11 12 6 6 16 16 11 13 13 13 11 6 7 10 5 9 11 10 10 9 8 6 5 4 5 8 10 13 13 13 14 14 13 14 12 11 11 16 19 18 20 20 19 20
11 8 10 6 7 10 10 10 7 6 4 6 8 10 6 15 15 13 12 12 11 7 5 4 4 6 9 9 10 11 13 14 14 14 15 15 13 13 14 12 15 15 16 17
19 12 7 9 14 16 10 12 8 5 9 4 5 3 7 14 16 15 14 13 12 11 7 4 3 5 7 9 9 10 11 12 14 16 17 18 17 17 16 18 17 16 15 17
26 12 12 17 1 17 20 18 18 7 9 8 9 3 4 11 12 13 13 13 12 11 10 6 5 5 6 7 9 10 10 12 13 14 17 20 20 18 21 19 17 16 16 15
13 14 13 13 7 7 12 20 20 19 11 12 8 1 4 10 11 12 14 14 13 13 11 8 6 6 7 6 8 10 10 11 12 13 14 15 18 23 22 21 20 20 18 16
7 15 24 17 14 14 12 21 23 20 14 16 16 5 11 12 13 13 14 15 15 14 13 10 7 8 9 9 8 9 10 11 14 14 15 15 18 21 21 19 19 18 15 13
7 13 23 24 25 9 13 21 26 27 26 15 16 16 13 17 17 16 16 16 16 15 14 12 10 9 11 12 10 9 10 10 12 14 16 16 16 17 16 17 17 18 17 13
6 14 19 22 23 12 14 16 22 28 25 24 17 12 6 16 16 16 17 18 17 17 17 15 13 14 14 14 14 12 11 11 12 14 16 18 20 21 20 19 17 20 19 17
5 12 17 18 20 11 15 23 20 21 24 24 21 21 9 11 19 20 20 19 19 18 18 18 17 17 20 19 17 15 14 13 12 15 15 16 16 16 16 16 15 16 16 15
6 7 9 13 14 16 14 18 21 22 23 21 21 11 9 13 16 18 19 20 20 19 19 19 18 21 20 20 19 18 18 17 17 16 15 15 15 16 15 15 15 15 15 14
11 6 5 9 13 12 5 4 21 18 20 21 21 17 13 11 11 15 20 20 20 21 19 23 25 24 22 21 20 20 19 18 18 18 17 17 17 17 17 16 16 14 14 13
19 15 7 5 17 21 12 11 11 13 13 16 22 19 19 14 13 12 21 21 20 21 25 25 27 26 24 23 23 22 20 19 17 17 16 16 15 14 14 14 13 11 11 11
12 6 11 13 11 14 10 14 12 14 5 16 18 21 20 20 15 12 21 19 20 23 26 28 28 26 26 25 24 23 22 20 19 19 18 17 16 16 16 15 13 13 12 12
14 13 7 11 16 20 8 11 14 8 1 2 8 15 23 18 11 15 21 21 20 20 26 29 26 25 27 26 25 24 23 21 20 20 20 19 19 18 19 18 16 15 13 12
17 11 12 14 18 5 16 8 15 2 3 2 6 10 16 18 13 16 18 20 20 21 25 27 26 26 26 26 26 24 23 23 22 21 20 18 16 14 14 13 13 11 11 11
24 22 16 16 19 24 11 11 3 2 2 2 5 11 15 17 15 14 17 17 18 22 24 28 27 26 26 26 25 24 24 25 24 22 20 19 18 17 16 14 14 13 14 12
12 16 19 22 21 15 16 13 4 5 2 4 5 11 15 16 16 16 16 17 17 22 27 29 27 26 26 27 27 26 27 27 25 23 22 20 17 17 15 13 14 13 12 13
13 14 13 12 16 14 17 13 11 10 8 7 9 12 13 13 15 15 16 16 20 22 28 26 27 27 28 28 27 27 29 30 28 25 24 23 21 22 19 17 14 14 11 15
Wind_Direction
201 229 230 242 227 257 297 284 279 282 280 271 268 268 276 266 244 248 262 273 309 320 326 332 322 303 281 269 256 251 240 223 210 188 199 198 211 228 224 226 220 208 192 173
206 238 249 259 270 264 256 266 268 276 307 275 277 278 278 261 260 260 272 295 324 334 351 347 319 307 291 277 249 242 227 214 205 185 200 198 214 210 217 189 176 163 161 161
232 261 19 254 228 243 245 256 270 285 307 279 268 281 240 210 218 188 228 303 336 6 352 346 355 343 353 345 284 243 218 208 190 186 187 163 161 188 178 190 166 170 169 161
241 250 228 228 234 233 260 255 256 278 286 283 115 288 252 174 200 201 222 25 52 19 358 14 8 2 353 351 330 198 199 190 179 185 177 160 193 193 198 182 168 178 169 166
227 214 231 236 245 243 261 204 244 264 273 285 272 246 243 163 200 201 182 135 99 46 26 27 13 20 10 19 40 72 140 168 173 185 188 176 161 188 203 186 156 160 163 172
244 41 204 227 236 237 112 212 239 258 264 262 252 209 253 181 218 136 168 160 117 88 50 35 33 37 38 36 60 79 95 111 156 169 191 170 147 142 157 160 146 160 170 177
223 228 212 188 184 191 198 215 249 235 200 261 56 229 253 114 134 153 160 159 133 102 79 46 26 40 44 37 39 57 74 78 87 134 127 139 148 163 164 156 129 148 164 174
218 222 208 201 209 198 206 209 197 234 245 263 157 235 240 129 142 140 146 151 140 134 114 65 47 36 45 44 41 48 51 61 77 96 112 142 157 155 164 165 162 155 161 176
224 227 203 183 207 216 184 223 245 275 263 275 219 235 172 173 169 166 166 174 162 158 142 110 79 68 57 54 48 44 56 59 67 90 105 117 141 155 155 160 162 160 160 169
249 239 183 179 193 225 234 180 178 217 234 246 216 241 230 188 192 180 181 186 165 163 161 130 100 75 75 68 64 60 56 58 69 79 89 103 119 134 143 144 141 146 152 171
227 245 170 155 211 188 182 201 220 224 229 283 289 198 5 177 190 180 185 182 173 165 171 156 110 88 85 85 80 76 71 69 71 81 87 92 95 97 112 111 122 122 132 139
209 228 211 210 154 229 205 213 214 213 218 233 287 289 188 148 169 169 172 171 172 157 147 152 144 114 102 98 97 90 90 90 91 87 96 95 106 108 104 102 102 111 112 121
205 230 239 186 196 212 226 216 227 225 256 255 239 166 163 145 160 168 163 168 168 154 154 149 143 137 126 115 109 102 99 97 99 96 95 93 97 107 108 108 108 106 103 106
261 219 223 221 221 176 203 210 215 223 224 232 235 210 190 183 180 173 169 171 169 166 161 149 145 145 132 126 117 113 110 110 107 104 101 101 102 107 106 108 111 114 116 110
185 232 241 244 257 235 208 204 204 211 218 226 240 233 204 193 194 185 174 174 174 174 164 157 158 155 145 136 130 120 113 114 116 113 110 107 106 104 103 110 106 109 117 114
196 249 253 249 243 229 237 225 212 214 221 231 247 243 272 184 189 184 182 179 183 182 170 167 163 163 156 153 145 139 133 128 125 117 114 114 113 111 105 106 110 114 107 104
291 231 245 249 230 220 251 222 211 216 220 225 231 239 249 201 189 190 186 186 188 185 173 175 170 177 164 166 158 156 154 145 135 128 127 124 122 118 120 124 121 115 115 113
284 295 271 244 246 211 255 215 202 209 212 217 234 240 214 205 209 195 193 187 187 185 179 175 173 174 166 160 161 160 162 158 151 147 145 142 138 134 132 130 128 124 125 127
224 266 269 232 207 250 165 217 189 202 228 220 223 220 218 195 197 206 193 192 188 184 179 177 173 169 162 162 159 157 156 154 152 152 150 150 148 145 144 142 139 137 133 126
205 223 243 295 233 230 247 201 198 192 257 212 213 210 200 173 195 200 191 187 184 180 178 175 169 165 167 165 161 159 160 160 159 157 153 150 148 144 143 141 139 136 132 128
187 179 207 231 243 242 254 150 151 185 270 203 196 201 191 194 206 186 175 180 180 175 174 172 171 171 171 167 165 166 166 170 165 159 155 154 154 153 153 151 150 147 146 146
188 172 183 214 236 243 143 150 185 200 86 336 210 188 191 184 194 151 164 169 171 169 171 172 171 172 175 174 173 173 173 169 163 161 160 161 163 163 164 161 159 157 153 151
201 194 197 194 217 285 181 210 220 26 319 179 202 180 171 171 164 159 163 166 167 166 168 172 172 171 176 177 180 177 175 168 166 167 167 166 165 166 166 164 161 159 162 164
208 192 210 238 231 227 208 219 245 174 296 162 177 170 164 166 160 154 159 164 165 167 167 170 172 175 174 178 182 181 175 171 171 172 171 172 172 171 173 173 175 179 181 181
210 207 210 214 235 220 225 224 213 214 188 146 161 174 175 167 162 158 160 163 165 166 167 172 175 176 175 177 182 181 176 175 177 177 176 178 179 179 179 185 188 190 196 193
245 207 207 213 203 224 226 221 202 220 201 178 163 164 178 172 163 162 161 165 165 167 169 173 176 174 174 178 181 181 177 178 179 181 181 181 181 182 183 183 180 196 197 200
Height
768 776 773 760 756 756 757 764 765 753 748 764 761 752 743 737 740 746 749 749 750 753 754 755 756 753 750 750 752 754 754 755 757 761 766 769 772 774 775 775 776 780 786 793
768 775 755 748 752 760 764 767 762 750 749 762 755 748 737 734 737 743 748 751 754 755 757 762 758 752 747 746 747 750 750 752 755 759 764 767 770 773 773 775 777 777 783 789
763 749 750 753 760 767 762 765 759 758 752 752 754 746 731 735 741 749 750 751 753 761 765 762 759 755 751 747 745 746 748 750 753 758 764 766 769 771 773 776 777 778 784 790
753 744 752 759 760 757 766 747 755 762 768 767 752 761 729 733 745 750 747 749 754 764 764 760 759 757 754 750 747 746 748 750 754 759 764 766 769 772 772 774 775 778 784 789
748 750 751 759 755 749 759 756 760 763 765 761 753 764 723 725 740 741 743 750 755 761 763 762 761 759 758 754 751 749 750 753 756 761 764 767 769 770 772 775 774 777 783 792
741 739 743 745 746 745 750 761 762 762 764 770 738 751 720 728 729 733 744 748 757 761 762 762 762 761 760 757 755 753 753 755 758 760 761 765 768 770 771 772 772 777 786 793
746 743 744 742 756 756 759 762 773 771 776 757 743 751 728 724 730 733 741 746 755 759 762 763 763 761 761 761 758 757 757 758 759 759 761 765 766 770 771 772 772 778 785 791
749 750 736 736 737 749 755 753 770 800 762 754 758 757 727 716 730 737 741 746 754 761 763 764 765 764 764 764 763 762 760 761 763 761 763 765 769 767 770 775 777 781 785 791
732 731 719 728 729 732 744 757 741 757 754 767 742 728 727 727 734 739 743 748 753 758 762 765 766 766 767 767 767 766 766 766 766 768 768 768 769 771 775 778 779 785 788 791
719 731 729 737 733 733 738 732 758 759 779 758 715 717 711 731 728 735 739 744 748 757 761 763 766 767 768 769 769 769 769 770 770 770 771 773 774 776 777 781 782 788 791 794
720 725 739 743 740 729 744 742 739 733 737 736 722 704 691 705 715 723 731 737 743 753 762 765 767 769 770 770 771 772 772 773 773 775 776 777 778 780 782 785 788 791 794 797
712 715 726 736 715 713 717 726 725 733 738 732 724 715 696 697 707 714 724 733 740 747 759 766 769 770 771 772 772 774 775 776 777 779 780 782 782 784 786 789 793 796 800 803
711 716 725 721 729 725 724 715 713 714 714 729 728 708 698 701 709 714 722 732 739 746 759 765 770 771 772 773 774 776 777 779 780 781 783 785 787 787 791 794 796 800 803 807
708 709 709 700 703 699 720 711 709 711 719 720 709 705 713 711 712 715 721 729 736 745 754 762 768 771 773 774 776 778 780 781 783 784 786 788 789 792 795 798 800 804 808 811
714 720 703 690 682 686 692 699 701 707 698 706 693 692 689 703 707 710 717 725 732 740 751 759 766 770 773 776 779 781 782 784 785 787 790 793 794 795 798 801 803 807 810 815
713 714 700 694 688 696 696 688 690 693 695 697 690 691 681 687 698 706 713 721 728 735 746 755 762 766 771 775 778 782 784 786 788 789 792 794 797 800 802 805 811 812 814 817
725 714 709 700 683 698 706 680 684 683 685 687 695 680 679 687 694 699 706 714 721 729 738 749 755 761 765 772 777 781 785 787 790 792 794 797 799 801 805 810 814 814 817 820
735 725 712 700 686 716 665 652 664 674 672 674 675 673 676 681 683 691 698 706 716 723 732 741 750 755 761 767 774 779 784 787 791 795 798 801 803 806 809 812 816 817 821 825
744 735 725 707 700 671 674 664 660 671 669 660 666 670 673 679 685 688 691 700 709 717 726 736 744 753 760 766 771 777 782 787 791 795 799 803 807 810 814 817 819 821 823 825
727 737 733 719 700 690 658 649 648 657 674 642 651 660 670 679 691 682 684 694 704 714 723 732 741 750 759 764 770 776 781 786 790 795 799 803 807 811 814 817 820 823 826 829
714 728 730 726 708 666 643 642 653 679 657 625 632 644 657 670 660 662 676 689 699 708 718 728 738 746 755 762 768 773 779 785 789 794 799 804 808 812 816 820 822 825 829 832
692 704 714 715 695 680 649 656 657 640 636 632 629 632 644 655 662 662 671 684 694 704 715 725 734 744 752 759 765 771 777 782 789 794 799 803 806 809 812 816 820 823 827 830
675 673 674 671 661 640 644 642 640 639 636 638 635 634 641 655 664 666 674 682 691 701 712 722 731 740 748 756 762 768 775 781 787 792 797 802 808 812 816 819 822 825 828 829
641 650 663 662 640 639 641 640 640 641 639 639 637 640 643 653 662 667 674 683 691 701 709 719 728 736 744 753 759 765 772 778 784 790 796 801 806 809 813 816 820 823 826 829
631 640 642 642 645 632 627 639 640 641 642 642 642 643 646 651 660 666 673 681 689 698 707 715 724 732 741 749 756 762 768 775 781 787 793 799 804 809 813 817 820 823 826 829
628 633 639 635 627 630 627 624 635 638 639 640 643 646 649 652 657 664 671 679 686 695 704 713 720 728 736 745 752 758 764 770 777 782 788 793 798 803 808 813 818 822 825 826